Location: Unspecified
(42.3650°N, 71.1030°W)
Time: 10:46:55
(UTC+00:00)

Transit 2A - Pass Details

Date: 29 June 2024
Orbit: 591 x 960 km, 66.7° (Epoch: 17 July)

Event Time Altitude Azimuth Distance (km) Brightness Sun altitude
Rises 04:58:25 0° 310° (NW) 3,611 10.0 -24.4°
Reaches altitude 10° 05:02:28 10° 285° (WNW) 2,689 8.9 -24.3°
Maximum altitude 05:05:12 13° 259° (W) 2,467 8.5 -24.3°
Enters shadow 05:05:38 13° 254° (WSW) 2,472 8.4 -24.3°
